Tracking 31027 objects as of 19-Jul-2025
HD Live streaming from Space Station
objects crossing your sky now

ARIANE 1 DEB

Track ARIANE 1 DEB now!


NORAD ID: 25822
Int'l Code: 1984-023D
Perigee: 1,049.8 km
Apogee: 31,592.8 km
Inclination: 7.8 °
Period: 567.0 minutes
Semi major axis: 22692 km
RCS: 0.3362 m2 (medium)
Launch date: March 5, 1984
Source: European Space Agency (ESA)
Launch site: FRENCH GUIANA (FRGUI)

Note: This is SATELLITE DEBRIS
Your satellite tracking list
CREW DRAGON DEMO-2 DEB
Track 1 satellite(s)




NASA's NSSDC Master Catalog

Two Line Element Set (TLE):
1 25822U 84023D   25199.36691726  .00000010  00000-0  00000-0 0  9993
2 25822   7.7692 193.1688 6729810 221.8448  44.5299  2.53971347246118
Source of the keplerian elements: AFSPC